Regional Weather Roundup
Issued by NWS

Home | Current Version | Previous Version | Graphics & Text | Print | Product List | Glossary Off
Versions: 1 2 3 4 5 6 7 8 9 10 11 12 13 14 15 16 17 18 19 20 21 22 23 24 25 26 27 28 29 30 31 32 33 34 35 36 37 38 39 40 41 42 43 44 45 46 47 48 49 50

000
ASUS43 KTOP 272059
RWRKS

WEATHER ROUNDUP FOR KANSAS
NATIONAL WEATHER SERVICE GOODLAND KS
300 PM CST TUE JAN 27 2015

NOTE:  "FAIR" INDICATES FEW OR NO CLOUDS BELOW 12,000 FEET WITH NO
SIGNIFICANT WEATHER AND/OR OBSTRUCTIONS TO VISIBILITY.

KSZ001>006-013>018-027>032-041>047-272200-
NORTHWEST KANSAS

CITY           SKY/WX    TMP DP  RH WIND       PRES   REMARKS
GOODLAND       SUNNY     79  20  11 W16       30.01F
HAYS           SUNNY     84  28  13 SW16G23   29.95F
HILL CITY      SUNNY     82  30  15 N6        29.95F
RUSSELL        SUNNY     77  32  19 SW10      29.94F
$$

KSZ061>065-074>080-084>089-272200-
SOUTHWEST KANSAS

CITY           SKY/WX    TMP DP  RH WIND       PRES   REMARKS
DODGE CITY     SUNNY     80  21  11 SW20      30.03F
ELKHART          N/A     76  28  17 SW13        N/A
GARDEN CITY    SUNNY     78  26  14 SW17G25   30.03F
LIBERAL        MOSUNNY   79  28  15 SW17      30.07F
$$

KSZ066>073-081>083-090>101-272200-
SOUTHEAST KANSAS

CITY           SKY/WX    TMP DP  RH WIND       PRES   REMARKS
CHANUTE        SUNNY     62  33  33 S10       30.09F
COFFEYVILLE    SUNNY     66  34  30 S9        30.09F
HUTCHINSON     SUNNY     76  35  22 S14       29.99F
MEDICINE LODGE   N/A     80  30  16 SW13      30.00F
NEWTON         SUNNY     70  34  26 S14       30.04F
PARSONS        SUNNY     64  35  34 S7        30.10F
WICHITA INTL   MOSUNNY   71  35  26 S16       30.02F
WICHITA JABRA  SUNNY     70  34  26 S12       30.02F
WINFIELD       SUNNY     72  31  22 S15       30.05F
$$

KSZ007>012-019>026-033>040-048>060-102>105-272200-
NORTHEAST KANSAS

CITY           SKY/WX    TMP DP  RH WIND       PRES   REMARKS
CONCORDIA      SUNNY     68  35  29 S15       29.97F
EMPORIA        SUNNY     62  34  35 S15       30.05F
LAWRENCE       SUNNY     57  32  38 SE7       30.09F
MANHATTAN      SUNNY     64  35  34 S15       30.02F
OLATHE IND     SUNNY     56  32  40 SE8       30.10F
OLATHE EXE     SUNNY     57  32  38 SE8       30.09F
SALINA         SUNNY     74  36  25 S12       29.98F
TOPEKA BILLARD SUNNY     60  32  34 SE12      30.06F
TOPEKA FORBES  SUNNY     62  32  32 S13       30.06F
$$


USA.gov is the U.S. government's official web portal to all federal, state and local government web resources and services.